Location: Arroyo de Fuente Vieja
(40.4902°N, 4.1175°W)
Time: 17:40:37
(UTC+00:00)

Tiangong - Pass Details

Date: 18 April 2024
Orbit: 371 x 374 km, 41.5° (Epoch: 24 May)

Event Time Altitude Azimuth Distance (km) Brightness Sun altitude
Rises 21:14:49 0° 262° (W) 2,251 2.3 -23.5°
Reaches altitude 10° 21:16:54 10° 264° (W) 1,394 1.2 -23.8°
Enters shadow 21:18:11 22° 266° (W) 883 0.1 -24.0°
